Scottsboro, AL

7:13 AM CDT on August 18, 2019 (GMT -0500)
Scottsboro

Weather History for K4A6 - July, 2019

Change the Weather History Date:

Monday, July 15, 2019

  Actual Average (KHSV) Record (KHSV)
Temperature  
Mean Temperature 79 °F -  
Max Temperature 87 °F 89 °F 103 °F (1966)
Min Temperature 71 °F 69 °F 53 °F (1967)
Cooling Degree Days 14    
Growing Degree Days 29 (Base 50)    
Moisture  
Dew Point 75 °F    
Average Humidity 91    
Maximum Humidity 100    
Minimum Humidity 58    
Precipitation  
Precipitation 0.00 in - - ()
Sea Level Pressure  
Sea Level Pressure 30.13 in    
Wind  
Wind Speed 2 mph (NNE)    
Max Wind Speed 10 mph    
Max Gust Speed 23 mph    
Visibility 10 miles    
Events Rain    
Averages and records for this station are not official NWS values.
T = Trace of Precipitation, MM = Missing Value Source: NWS Daily Summary

Daily Weather History Graph

Daily Weather History Graph

Search for Another Location

Airport or City:

Astronomy

Jul. 15, 2019 Rise Set
Actual Time 5:42 AM CDT 7:57 PM CDT
Civil Twilight 5:13 AM CDT 8:26 PM CDT
Nautical Twilight 4:37 AM CDT 9:01 PM CDT
Astronomical Twilight 3:59 AM CDT 9:39 PM CDT
Moon 7:13 PM CDT (7/15) 4:29 AM CDT (7/15)
Length of Visible Light 15h 13m
Length of Day
14h 15m
Waxing Gibbous, 99% of the Moon is Illuminated
Jul 15
Waxing Gibbous
Jul 16
Full
Jul 24
Last Quarter
Jul 31
New
Aug 7
First Quarter

Hourly Weather History & Observations

Time (CDT) Temp. Heat Index Dew Point Humidity Pressure Visibility Wind Dir Wind Speed Gust Speed Precip Events Conditions
12:15 AM 75.2 °F - 75.2 °F 100% 30.17 in 10.0 mi Calm Calm - N/A   Clear
12:35 AM 75.2 °F - 75.2 °F 100% 30.15 in 10.0 mi Calm Calm - N/A   Clear
12:55 AM 75.2 °F - 75.2 °F 100% 30.15 in 10.0 mi Calm Calm - N/A   Clear
1:15 AM 73.4 °F - 73.4 °F 100% 30.14 in 10.0 mi Calm Calm - N/A   Clear
1:35 AM 73.4 °F - 73.4 °F 100% 30.14 in 10.0 mi Calm Calm - N/A   Clear
1:55 AM 73.4 °F - 73.4 °F 100% 30.14 in 10.0 mi Calm Calm - N/A   Clear
2:15 AM 73.4 °F - 73.4 °F 100% 30.14 in 10.0 mi Calm Calm - N/A   Clear
2:35 AM 73.4 °F - 73.4 °F 100% 30.14 in 10.0 mi Calm Calm - N/A   Clear
2:55 AM 73.4 °F - 73.4 °F 100% 30.13 in 10.0 mi Calm Calm - N/A   Clear
3:15 AM 73.4 °F - 73.4 °F 100% 30.13 in 10.0 mi Calm Calm - N/A   Clear
3:55 AM 73.4 °F - 73.4 °F 100% 30.13 in 10.0 mi Calm Calm - N/A   Clear
4:15 AM 73.4 °F - 73.4 °F 100% 30.12 in 10.0 mi Calm Calm - N/A   Clear
4:35 AM 73.4 °F - 73.4 °F 100% 30.12 in 10.0 mi Calm Calm - N/A   Clear
4:55 AM 73.4 °F - 73.4 °F 100% 30.12 in 10.0 mi Variable 3.5 mph - N/A   Clear
5:15 AM 71.6 °F - 71.6 °F 100% 30.12 in 10.0 mi Calm Calm - N/A   Clear
5:35 AM 71.6 °F - 71.6 °F 100% 30.13 in 10.0 mi Calm Calm - N/A   Clear
5:55 AM 71.6 °F - 71.6 °F 100% 30.13 in 10.0 mi Calm Calm - N/A   Clear
6:15 AM 73.4 °F - 73.4 °F 100% 30.13 in 10.0 mi NNE 3.5 mph - N/A   Clear
6:35 AM 73.4 °F - 73.4 °F 100% 30.14 in 9.0 mi Calm Calm - N/A   Clear
6:55 AM 73.4 °F - 73.4 °F 100% 30.14 in 9.0 mi North 4.6 mph - N/A   Clear
7:15 AM 73.4 °F - 73.4 °F 100% 30.14 in 10.0 mi Calm Calm - N/A   Clear
7:35 AM 73.4 °F - 73.4 °F 100% 30.14 in 9.0 mi NE 4.6 mph - N/A   Clear
7:55 AM 75.2 °F - 75.2 °F 100% 30.14 in 9.0 mi NE 4.6 mph - N/A   Clear
8:15 AM 75.2 °F - 75.2 °F 100% 30.15 in 10.0 mi NNE 4.6 mph - N/A   Clear
8:35 AM 75.2 °F - 75.2 °F 100% 30.16 in 10.0 mi Calm Calm - N/A   Clear
8:55 AM 75.2 °F - 75.2 °F 100% 30.17 in 10.0 mi NNE 4.6 mph - N/A   Clear
9:15 AM 77.0 °F - 77.0 °F 100% 30.17 in 10.0 mi Calm Calm - N/A   Clear
9:35 AM 77.0 °F - 77.0 °F 100% 30.17 in 9.0 mi Calm Calm - N/A   Clear
9:55 AM 77.0 °F - 77.0 °F 100% 30.16 in 9.0 mi Calm Calm - N/A   Clear
10:15 AM 80.6 °F 88.1 °F 78.8 °F 94% 30.16 in 10.0 mi North 3.5 mph - N/A   Clear
10:35 AM 82.4 °F 92.4 °F 78.8 °F 89% 30.16 in 9.0 mi Calm Calm - N/A   Clear
10:55 AM 84.2 °F 94.1 °F 77.0 °F 79% 30.16 in 10.0 mi Calm Calm - N/A   Clear
11:15 AM 86.0 °F 95.1 °F 75.2 °F 70% 30.16 in 10.0 mi SSE 6.9 mph - N/A   Clear
11:35 AM 86.0 °F 93.4 °F 73.4 °F 66% 30.16 in 10.0 mi South 9.2 mph - N/A   Clear
11:55 AM 86.0 °F 93.4 °F 73.4 °F 66% 30.15 in 10.0 mi SW 9.2 mph - N/A   Clear
12:15 PM 86.0 °F 93.4 °F 73.4 °F 66% 30.14 in 10.0 mi South 9.2 mph - N/A   Clear
12:35 PM 87.8 °F 93.8 °F 71.6 °F 58% 30.14 in 9.0 mi WSW 10.4 mph 16.1 mph N/A   Clear
12:55 PM 87.8 °F 93.8 °F 71.6 °F 58% 30.14 in 10.0 mi SSW 8.1 mph - N/A   Clear
1:15 PM 87.8 °F 93.8 °F 71.6 °F 58% 30.14 in 10.0 mi Variable 5.8 mph 13.8 mph N/A   Clear
2:15 PM 86.0 °F 93.4 °F 73.4 °F 66% 30.13 in 10.0 mi Variable 4.6 mph 11.5 mph N/A   Clear
2:35 PM 87.8 °F 95.6 °F 73.4 °F 62% 30.13 in 10.0 mi Variable 5.8 mph - N/A   Clear
2:55 PM 86.0 °F 93.4 °F 73.4 °F 66% 30.13 in 10.0 mi Variable 6.9 mph - N/A   Clear
3:15 PM 86.0 °F 93.4 °F 73.4 °F 66% 30.13 in 10.0 mi Variable 6.9 mph - N/A   Clear
3:35 PM 86.0 °F 93.4 °F 73.4 °F 66% 30.12 in 10.0 mi Variable 4.6 mph 13.8 mph N/A   Clear
3:55 PM 78.8 °F - 77.0 °F 94% 30.13 in 5.0 mi WNW 9.2 mph 23.0 mph N/A Rain Light Rain
4:15 PM 77.0 °F - 77.0 °F 100% 30.12 in 10.0 mi NNE 6.9 mph - N/A   Partly Cloudy
4:35 PM 78.8 °F - 75.2 °F 89% 30.12 in 10.0 mi Calm Calm - N/A   Clear
4:55 PM 80.6 °F 86.2 °F 75.2 °F 84% 30.11 in 10.0 mi Variable 4.6 mph - N/A   Clear
5:15 PM 80.6 °F 86.2 °F 75.2 °F 84% 30.10 in 10.0 mi Calm Calm - N/A   Clear
5:35 PM 80.6 °F 86.2 °F 75.2 °F 84% 30.09 in 10.0 mi Calm Calm - N/A   Clear
5:55 PM 80.6 °F 86.2 °F 75.2 °F 84% 30.09 in 10.0 mi Variable 3.5 mph - N/A   Clear
6:15 PM 80.6 °F 86.2 °F 75.2 °F 84% 30.09 in 10.0 mi NNE 4.6 mph - N/A   Clear
6:35 PM 80.6 °F 86.2 °F 75.2 °F 84% 30.09 in 10.0 mi NNE 3.5 mph - N/A   Clear
6:55 PM 78.8 °F - 77.0 °F 94% 30.10 in 10.0 mi Calm Calm - N/A   Clear
7:15 PM 78.8 °F - 77.0 °F 94% 30.10 in 10.0 mi Calm Calm - N/A   Clear
7:35 PM 78.8 °F - 77.0 °F 94% 30.10 in 10.0 mi Calm Calm - N/A   Clear
7:55 PM 77.0 °F - 77.0 °F 100% 30.10 in 10.0 mi Calm Calm - N/A   Clear
8:15 PM 77.0 °F - 77.0 °F 100% 30.10 in 10.0 mi North 3.5 mph - N/A   Clear
8:35 PM 77.0 °F - 77.0 °F 100% 30.10 in 10.0 mi Calm Calm - N/A   Clear
9:15 PM 75.2 °F - 75.2 °F 100% 30.11 in 10.0 mi Calm Calm - N/A   Clear
9:35 PM 75.2 °F - 75.2 °F 100% 30.11 in 10.0 mi Calm Calm - N/A   Clear
9:55 PM 75.2 °F - 75.2 °F 100% 30.11 in 10.0 mi Calm Calm - N/A   Clear
10:15 PM 75.2 °F - 75.2 °F 100% 30.12 in 10.0 mi Calm Calm - N/A   Clear
10:35 PM 75.2 °F - 75.2 °F 100% 30.12 in 10.0 mi Calm Calm - N/A   Clear
10:55 PM 75.2 °F - 75.2 °F 100% 30.11 in 10.0 mi Calm Calm - N/A   Clear
11:15 PM 75.2 °F - 75.2 °F 100% 30.12 in 10.0 mi Calm Calm - N/A   Clear
11:35 PM 75.2 °F - 75.2 °F 100% 30.12 in 10.0 mi Calm Calm - N/A   Clear
11:55 PM 73.4 °F - 73.4 °F 100% 30.12 in 10.0 mi Calm Calm - N/A   Clear